Regional Weather Roundup
Issued by NWS Sioux Falls, SD

Home | Current Version | Previous Version | Text Only | Print | Product List | Glossary On
Versions: 1 2 3 4 5 6 7 8 9 10 11 12 13 14 15 16 17 18 19 20 21 22 23 24 25 26 27 28 29 30 31 32 33 34 35 36 37 38 39 40 41 42 43 44 45 46 47 48 49 50
068
ASUS43 KFSD 270502
RWRFSD

WEATHER ROUNDUP FOR SE SOUTH DAKOTA/SW MINNESOTA/NW IOWA
NATIONAL WEATHER SERVICE SIOUX FALLS SD
1100 PM CST SUN FEB 26 2017

NOTE: "FAIR" INDICATES FEW OR NO CLOUDS BELOW 12,000 FEET WITH NO
SIGNIFICANT WEATHER AND OR OBSTRUCTIONS TO VISIBILITY.


SDZ038>040-050-052>070-270600-
SOUTHEAST SOUTH DAKOTA

CITY           SKY/WX    TMP DP  RH WIND       PRES   REMARKS
BROOKINGS      CLEAR     28  22  78 SW10      29.85S WCI  19
CHAMBERLAIN    CLEAR     29  20  69 SW7       29.86F WCI  21
HURON          PTCLDY    28  20  71 SW9       29.85S WCI  19
MADISON        MOCLDY    28  25  86 SW13      29.87S WCI  18
MITCHELL       CLEAR     30  21  69 SW10      29.89R WCI  21
SIOUX FALLS    PTCLDY    28  22  78 SW8       29.91S WCI  20
WINNER         FAIR      26  14  60 SW14      29.85F WCI  14
YANKTON        CLEAR     28  18  64 S7        29.93S WCI  21
$$

MNZ071-072-080-081-089-090-097-098-270600-
SOUTHWEST MINNESOTA

CITY           SKY/WX    TMP DP  RH WIND       PRES   REMARKS
FAIRMONT       CLEAR     23  19  85 SW9       29.96S WCI  13
JACKSON        CLEAR     27  21  80 S8        29.93F WCI  18
LUVERNE        CLEAR     28  23  80 SW9       29.92S WCI  20
MARSHALL       CLEAR     27  24  89 SE7       29.90S WCI  19
MONTEVIDEO     CLOUDY    27  21  80 SE6       29.92S WCI  20
PIPESTONE      CLEAR     28  21  74 SW13      29.88S WCI  18
REDWOOD FALLS  CLEAR     27  20  75 SE6       29.91F WCI  20
TRACY          CLEAR     31  27  83 SW15      29.89F WCI  20
WINDOM         CLEAR     28  25  86 S8        29.92S WCI  20
WORTHINGTON    CLEAR     27  23  85 SW12      29.92F WCI  17
$$

IAZ001>003-012>014-020>022-031-032-NEZ013-014-SDZ071-270600-
NORTHWEST IOWA

CITY           SKY/WX    TMP DP  RH WIND       PRES   REMARKS
CHEROKEE       CLEAR     17  17  98 CALM      29.98S
DENISON        CLEAR     21  21 100 CALM      29.97S
ESTHERVILLE    CLEAR     22  19  89 S12       29.95S WCI  10
LE MARS        CLEAR     23  21  93 S3        29.97F
SHELDON        CLEAR     27  27 100 S10       29.93S WCI  17
SIOUX CITY     CLEAR     19  16  88 E7        29.98S WCI  10
SPENCER        CLEAR     20  17  88 SW8       29.96S WCI  10
STORM LAKE     CLEAR     25  21  86 SW7       29.97S WCI  17
$$

ABBREVIATIONS USED IN REMARKS
   TC - TEMPERATURE IN CELSIUS
  WCI - WIND CHILL INDEX
   HX - HEAT INDEX
  VSB - VISIBILITY





USA.gov is the U.S. government's official web portal to all federal, state and local government web resources and services.